EGV1339 EPKT-LICR

Flight info

Callsign EGV1339
Flight time 1h 56m
Altitude 38000
Route TUSIN DCT UPLAV DCT LEDVA/N0454F370 DCT ARSIN DCT KOPRY DCT AIOSA DCT CDC L137 GIMEL
Aircraft A320/M-SDE3FGHIRWY/LB1

Departure

Time 2026-04-29 11:26
Airport Katowice Wojciech Korfanty International Airport (EPKT)

Arrival

Time 2026-04-29 13:23
Airport Reggio Calabria Airport (LICR)
Time Latitude Longitude Altitude Speed Heading
2026-04-29 11:00 50.47149 19.07695 998 ft 0 kts 180°
2026-04-29 11:15 50.47150 19.07695 998 ft 2 kts 180°
2026-04-29 11:15 50.47167 19.07695 999 ft 2 kts 179°
2026-04-29 11:15 50.47183 19.07695 1000 ft 2 kts 182°
2026-04-29 11:15 50.47199 19.07695 998 ft 2 kts 173°
2026-04-29 11:16 50.47216 19.07691 1000 ft 2 kts 158°
2026-04-29 11:16 50.47230 19.07679 999 ft 2 kts 123°
2026-04-29 11:16 50.47234 19.07654 998 ft 2 kts 92°
2026-04-29 11:16 50.47235 19.07644 998 ft 0 kts 89°
2026-04-29 11:19 50.47235 19.07668 998 ft 9 kts 91°
2026-04-29 11:19 50.47233 19.07797 998 ft 13 kts 90°
2026-04-29 11:19 50.47233 19.07949 1003 ft 15 kts 90°
2026-04-29 11:20 50.47233 19.08122 1003 ft 17 kts 90°
2026-04-29 11:20 50.47232 19.08314 998 ft 18 kts 90°
2026-04-29 11:20 50.47233 19.08513 1000 ft 18 kts 89°
2026-04-29 11:20 50.47298 19.08586 999 ft 13 kts 359°
2026-04-29 11:21 50.47392 19.08588 1001 ft 14 kts
2026-04-29 11:21 50.47423 19.08719 1001 ft 15 kts 92°
2026-04-29 11:21 50.47422 19.08890 999 ft 17 kts 90°
2026-04-29 11:21 50.47422 19.09081 999 ft 18 kts 90°
2026-04-29 11:22 50.47421 19.09291 999 ft 16 kts 90°
2026-04-29 11:22 50.47470 19.09390 999 ft 13 kts 14°
2026-04-29 11:22 50.47495 19.09392 999 ft 0 kts 359°
2026-04-29 11:23 50.47498 19.09391 999 ft 3 kts 359°
2026-04-29 11:23 50.47568 19.09404 1000 ft 13 kts 23°
2026-04-29 11:23 50.47596 19.09540 999 ft 15 kts 90°
2026-04-29 11:24 50.47596 19.09714 999 ft 17 kts 90°
2026-04-29 11:24 50.47595 19.09921 1000 ft 20 kts 90°
2026-04-29 11:24 50.47595 19.10148 998 ft 21 kts 90°
2026-04-29 11:24 50.47563 19.10346 998 ft 14 kts 115°
2026-04-29 11:25 50.47566 19.10442 1000 ft 7 kts
2026-04-29 11:25 50.47595 19.10384 1000 ft 8 kts 271°
2026-04-29 11:25 50.47595 19.10303 1002 ft 7 kts 270°
2026-04-29 11:25 50.47595 19.10216 998 ft 17 kts 270°
2026-04-29 11:26 50.47602 19.08222 999 ft 152 kts 270°
2026-04-29 11:26 50.47615 19.06419 1370 ft 173 kts 275°
2026-04-29 11:26 50.47608 19.04540 2229 ft 171 kts 276°
2026-04-29 11:27 50.47608 19.02668 2965 ft 175 kts 275°
2026-04-29 11:27 50.47612 19.00644 3386 ft 197 kts 275°
2026-04-29 11:27 50.47621 18.98391 3773 ft 222 kts 274°
2026-04-29 11:27 50.47630 18.95845 4258 ft 246 kts 274°
2026-04-29 11:28 50.47635 18.93036 4842 ft 265 kts 272°
2026-04-29 11:28 50.47611 18.90085 5813 ft 269 kts 272°
2026-04-29 11:28 50.47568 18.87164 6776 ft 273 kts 271°
2026-04-29 11:28 50.47519 18.84141 7742 ft 275 kts 272°
2026-04-29 11:29 50.47474 18.81168 8712 ft 276 kts 272°
2026-04-29 11:29 50.47431 18.78153 9716 ft 277 kts 273°
2026-04-29 11:29 50.47388 18.75116 10624 ft 281 kts 273°
2026-04-29 11:29 50.47348 18.71922 10962 ft 305 kts 273°
2026-04-29 11:30 50.47306 18.68462 11217 ft 329 kts 273°
2026-04-29 11:30 50.47217 18.64767 11516 ft 349 kts 267°
2026-04-29 11:30 50.46607 18.61005 12171 ft 363 kts 252°
2026-04-29 11:30 50.45347 18.57496 12921 ft 376 kts 237°
2026-04-29 11:31 50.43485 18.54546 13668 ft 389 kts 221°
2026-04-29 11:31 50.41112 18.52395 14348 ft 399 kts 210°
2026-04-29 11:31 50.38588 18.50520 14989 ft 403 kts 210°
2026-04-29 11:31 50.36045 18.48639 15273 ft 405 kts 210°
2026-04-29 11:32 50.33494 18.46771 15558 ft 408 kts 208°
2026-04-29 11:32 50.30775 18.45342 16268 ft 415 kts 198°
2026-04-29 11:32 50.27902 18.44678 16942 ft 422 kts 187°
2026-04-29 11:32 50.24942 18.44870 17557 ft 430 kts 175°
2026-04-29 11:33 50.21984 18.45757 18147 ft 435 kts 171°
2026-04-29 11:33 50.19003 18.46703 18724 ft 439 kts 172°
2026-04-29 11:33 50.16040 18.47634 19204 ft 442 kts 172°
2026-04-29 11:33 50.13013 18.48577 19681 ft 446 kts 172°
2026-04-29 11:34 50.09960 18.49524 20173 ft 449 kts 172°
2026-04-29 11:34 50.06886 18.50471 20649 ft 452 kts 172°
2026-04-29 11:34 50.03793 18.51422 21147 ft 455 kts 172°
2026-04-29 11:34 50.00678 18.52381 21622 ft 458 kts 172°
2026-04-29 11:35 49.97537 18.53348 22104 ft 461 kts 172°
2026-04-29 11:35 49.94379 18.54283 22555 ft 463 kts 175°
2026-04-29 11:35 49.91177 18.54579 22974 ft 460 kts 187°
2026-04-29 11:35 49.88025 18.53953 23391 ft 455 kts 199°
2026-04-29 11:36 49.85047 18.52424 23814 ft 449 kts 210°
2026-04-29 11:36 49.82339 18.50092 24151 ft 441 kts 221°
2026-04-29 11:36 49.79984 18.47124 24563 ft 434 kts 231°
2026-04-29 11:36 49.78015 18.43644 24951 ft 428 kts 239°
2026-04-29 11:37 49.76205 18.39979 25335 ft 429 kts 239°
2026-04-29 11:37 49.74409 18.36352 25710 ft 431 kts 239°
2026-04-29 11:37 49.72580 18.32666 26019 ft 433 kts 239°
2026-04-29 11:37 49.70736 18.28960 26322 ft 436 kts 239°
2026-04-29 11:38 49.68879 18.25241 26648 ft 438 kts 239°
2026-04-29 11:38 49.67009 18.21502 26978 ft 440 kts 239°
2026-04-29 11:38 49.65137 18.17752 27313 ft 442 kts 239°
2026-04-29 11:38 49.63257 18.13995 27636 ft 444 kts 239°
2026-04-29 11:39 49.61367 18.10226 27957 ft 445 kts 239°
2026-04-29 11:39 49.59466 18.06440 28266 ft 447 kts 239°
2026-04-29 11:39 49.57563 18.02655 28711 ft 446 kts 239°
2026-04-29 11:39 49.55668 17.98890 29169 ft 444 kts 239°
2026-04-29 11:40 49.53780 17.95141 29634 ft 442 kts 239°
2026-04-29 11:40 49.51896 17.91404 30096 ft 441 kts 239°
2026-04-29 11:40 49.50018 17.87684 30529 ft 439 kts 239°
2026-04-29 11:40 49.48144 17.83971 30835 ft 439 kts 239°
2026-04-29 11:41 49.46297 17.80313 31149 ft 439 kts 239°
2026-04-29 11:41 49.44423 17.76611 31492 ft 439 kts 239°
2026-04-29 11:41 49.42545 17.72920 31830 ft 439 kts 238°
2026-04-29 11:41 49.40661 17.69228 32169 ft 439 kts 238°
2026-04-29 11:42 49.38779 17.65546 32517 ft 438 kts 238°
2026-04-29 11:42 49.36895 17.61866 32863 ft 438 kts 238°
2026-04-29 11:42 49.35012 17.58193 33209 ft 438 kts 238°
2026-04-29 11:42 49.33121 17.54536 33548 ft 439 kts 236°
2026-04-29 11:43 49.30961 17.51166 33880 ft 448 kts 227°
2026-04-29 11:43 49.28563 17.48125 34237 ft 447 kts 226°
2026-04-29 11:43 49.26165 17.45112 34574 ft 445 kts 226°
2026-04-29 11:43 49.23771 17.42104 34856 ft 445 kts 226°
2026-04-29 11:44 49.21375 17.39092 35129 ft 446 kts 226°
2026-04-29 11:44 49.18977 17.36079 35377 ft 447 kts 225°
2026-04-29 11:44 49.16572 17.33059 35618 ft 447 kts 225°
2026-04-29 11:44 49.14167 17.30041 35853 ft 448 kts 225°
2026-04-29 11:45 49.11756 17.27024 36090 ft 449 kts 225°
2026-04-29 11:45 49.09340 17.24009 36323 ft 448 kts 225°
2026-04-29 11:45 49.06926 17.21002 36553 ft 449 kts 225°
2026-04-29 11:45 49.04506 17.17990 36767 ft 449 kts 225°
2026-04-29 11:46 49.02082 17.14975 36973 ft 450 kts 225°
2026-04-29 11:46 48.99658 17.11959 37183 ft 450 kts 225°
2026-04-29 11:46 48.97260 17.08979 37379 ft 451 kts 225°
2026-04-29 11:46 48.94794 17.05913 37569 ft 452 kts 225°
2026-04-29 11:47 48.92359 17.02893 37737 ft 452 kts 225°
2026-04-29 11:47 48.89951 16.99915 37987 ft 451 kts 225°
2026-04-29 11:47 48.87515 16.96909 38209 ft 451 kts 224°
2026-04-29 11:47 48.85072 16.93896 38278 ft 453 kts 224°
2026-04-29 11:48 48.80162 16.87860 38277 ft 454 kts 224°
2026-04-29 11:48 48.75066 16.82146 38277 ft 461 kts 213°
2026-04-29 11:49 48.68944 16.78970 37800 ft 473 kts 193°
2026-04-29 11:49 48.65647 16.78667 37357 ft 476 kts 185°
2026-04-29 11:49 48.62331 16.78622 37234 ft 476 kts 185°
2026-04-29 11:50 48.55685 16.78430 37269 ft 478 kts 186°
2026-04-29 11:50 48.49040 16.78181 37262 ft 477 kts 186°
2026-04-29 11:51 48.42415 16.77958 37269 ft 476 kts 186°
2026-04-29 11:51 48.35788 16.77758 37268 ft 476 kts 186°
2026-04-29 11:52 48.30284 16.77593 37270 ft 476 kts 186°
2026-04-29 11:52 48.23661 16.77391 37262 ft 475 kts 186°
2026-04-29 11:53 48.15980 16.77152 37278 ft 475 kts 186°
2026-04-29 11:53 48.10450 16.76987 37279 ft 474 kts 186°
2026-04-29 11:54 48.03854 16.76792 37258 ft 473 kts 186°
2026-04-29 11:54 47.97275 16.76588 37272 ft 473 kts 186°
2026-04-29 11:55 47.90746 16.76389 37274 ft 472 kts 186°
2026-04-29 11:55 47.84184 16.76189 37245 ft 472 kts 187°
2026-04-29 11:56 47.77631 16.75991 37261 ft 471 kts 187°
2026-04-29 11:56 47.71081 16.75793 37269 ft 470 kts 187°
2026-04-29 11:57 47.64537 16.75591 37268 ft 470 kts 187°
2026-04-29 11:57 47.57998 16.75394 37270 ft 470 kts 186°
2026-04-29 11:58 47.51427 16.76209 37268 ft 475 kts 179°
2026-04-29 11:58 47.44852 16.77276 37265 ft 475 kts 179°
2026-04-29 11:59 47.38273 16.78334 37241 ft 476 kts 180°
2026-04-29 11:59 47.31685 16.79383 37258 ft 476 kts 179°
2026-04-29 12:00 47.25091 16.80441 37257 ft 477 kts 180°
2026-04-29 12:00 47.18487 16.81498 37234 ft 477 kts 180°
2026-04-29 12:01 47.11925 16.82536 37244 ft 477 kts 180°
2026-04-29 12:01 47.05319 16.83582 37254 ft 478 kts 180°
2026-04-29 12:02 46.98708 16.84626 37255 ft 478 kts 180°
2026-04-29 12:02 46.92091 16.85670 37242 ft 478 kts 180°
2026-04-29 12:03 46.85480 16.86711 37252 ft 478 kts 180°
2026-04-29 12:03 46.78866 16.87748 37274 ft 478 kts 180°
2026-04-29 12:04 46.72261 16.88790 37274 ft 477 kts 180°
2026-04-29 12:04 46.65660 16.89829 37268 ft 477 kts 180°
2026-04-29 12:05 46.59065 16.90855 37265 ft 477 kts 180°
2026-04-29 12:05 46.52511 16.91870 37233 ft 477 kts 180°
2026-04-29 12:06 46.45917 16.92891 37243 ft 477 kts 180°
2026-04-29 12:06 46.39326 16.93919 37250 ft 477 kts 180°
2026-04-29 12:07 46.32731 16.94936 37256 ft 476 kts 180°
2026-04-29 12:07 46.26145 16.95951 37236 ft 476 kts 180°
2026-04-29 12:08 46.19562 16.96794 37254 ft 474 kts 183°
2026-04-29 12:08 46.12984 16.97204 37270 ft 473 kts 185°
2026-04-29 12:09 46.06402 16.97520 37248 ft 473 kts 185°
2026-04-29 12:09 45.99822 16.97938 37260 ft 473 kts 184°
2026-04-29 12:10 45.93241 16.98433 37266 ft 474 kts 184°
2026-04-29 12:10 45.86659 16.98928 37247 ft 473 kts 184°
2026-04-29 12:11 45.80091 16.99401 37259 ft 472 kts 184°
2026-04-29 12:11 45.73527 16.99846 37262 ft 472 kts 184°
2026-04-29 12:12 45.67007 17.00292 37234 ft 472 kts 184°
2026-04-29 12:12 45.60450 17.00755 37247 ft 472 kts 184°
2026-04-29 12:13 45.53890 17.01215 37258 ft 472 kts 184°
2026-04-29 12:13 45.47331 17.01667 37250 ft 472 kts 184°
2026-04-29 12:14 45.40771 17.02117 37249 ft 472 kts 184°
2026-04-29 12:14 45.34207 17.02575 37245 ft 472 kts 184°
2026-04-29 12:15 45.27646 17.03029 37213 ft 472 kts 184°
2026-04-29 12:15 45.21083 17.03481 37231 ft 472 kts 184°
2026-04-29 12:16 45.14510 17.03935 37233 ft 473 kts 184°
2026-04-29 12:16 45.07952 17.04385 37200 ft 471 kts 184°
2026-04-29 12:17 45.01405 17.04825 37211 ft 471 kts 184°
2026-04-29 12:17 44.94908 17.05267 37224 ft 471 kts 184°
2026-04-29 12:18 44.88362 17.05711 37223 ft 471 kts 184°
2026-04-29 12:18 44.81820 17.06163 37205 ft 471 kts 184°
2026-04-29 12:19 44.75286 17.06609 37208 ft 470 kts 184°
2026-04-29 12:19 44.68751 17.07048 37195 ft 470 kts 184°
2026-04-29 12:20 44.62220 17.07482 37164 ft 469 kts 184°
2026-04-29 12:20 44.55698 17.07920 37166 ft 469 kts 184°
2026-04-29 12:21 44.49175 17.08359 37173 ft 469 kts 184°
2026-04-29 12:21 44.42645 17.08799 37146 ft 469 kts 184°
2026-04-29 12:22 44.36169 17.09228 37151 ft 469 kts 184°
2026-04-29 12:22 44.29634 17.09665 37138 ft 470 kts 184°
2026-04-29 12:23 44.23105 17.10096 37114 ft 469 kts 184°
2026-04-29 12:23 44.16578 17.10530 37108 ft 469 kts 184°
2026-04-29 12:24 44.10055 17.10967 37112 ft 469 kts 184°
2026-04-29 12:24 44.03584 17.11393 37091 ft 469 kts 183°
2026-04-29 12:25 43.97065 17.11822 37099 ft 469 kts 183°
2026-04-29 12:26 43.87301 17.12464 37076 ft 468 kts 183°
2026-04-29 12:26 43.80800 17.12898 37093 ft 467 kts 183°
2026-04-29 12:27 43.74305 17.13316 37092 ft 467 kts 183°
2026-04-29 12:27 43.67817 17.13740 37072 ft 467 kts 183°
2026-04-29 12:28 43.61325 17.14166 37083 ft 466 kts 183°
2026-04-29 12:28 43.54836 17.14592 37084 ft 466 kts 183°
2026-04-29 12:29 43.48404 17.15004 37084 ft 466 kts 183°
2026-04-29 12:29 43.41927 17.15419 37085 ft 466 kts 183°
2026-04-29 12:30 43.35446 17.15834 37086 ft 466 kts 183°
2026-04-29 12:30 43.28974 17.16253 37069 ft 465 kts 183°
2026-04-29 12:31 43.22510 17.16675 37081 ft 465 kts 183°
2026-04-29 12:31 43.16042 17.17092 37092 ft 465 kts 183°
2026-04-29 12:32 43.09568 17.17500 37079 ft 465 kts 183°
2026-04-29 12:32 43.03107 17.17911 37076 ft 465 kts 183°
2026-04-29 12:33 42.96648 17.18324 37079 ft 465 kts 183°
2026-04-29 12:33 42.90237 17.18735 37063 ft 464 kts 182°
2026-04-29 12:34 42.83781 17.19145 37080 ft 464 kts 182°
2026-04-29 12:34 42.77335 17.19547 37086 ft 464 kts 182°
2026-04-29 12:35 42.70890 17.19963 37075 ft 463 kts 182°
2026-04-29 12:35 42.64452 17.20373 37080 ft 463 kts 182°
2026-04-29 12:36 42.58016 17.20775 37081 ft 463 kts 182°
2026-04-29 12:36 42.51582 17.21180 37065 ft 463 kts 182°
2026-04-29 12:37 42.45160 17.21583 37074 ft 462 kts 182°
2026-04-29 12:37 42.38736 17.21981 37078 ft 462 kts 182°
2026-04-29 12:38 42.32314 17.22382 37078 ft 462 kts 182°
2026-04-29 12:38 42.25899 17.22780 37065 ft 461 kts 182°
2026-04-29 12:39 42.19481 17.23177 37071 ft 461 kts 182°
2026-04-29 12:39 42.13066 17.23581 37073 ft 461 kts 182°
2026-04-29 12:40 42.06655 17.23987 37066 ft 461 kts 182°
2026-04-29 12:40 42.00250 17.24385 37065 ft 461 kts 182°
2026-04-29 12:41 41.93852 17.24682 37061 ft 457 kts 187°
2026-04-29 12:41 41.87690 17.23324 37052 ft 450 kts 197°
2026-04-29 12:42 41.81571 17.21536 37058 ft 450 kts 197°
2026-04-29 12:42 41.75446 17.19776 37063 ft 450 kts 197°
2026-04-29 12:43 41.69324 17.18018 37056 ft 450 kts 197°
2026-04-29 12:43 41.63204 17.16263 37063 ft 450 kts 196°
2026-04-29 12:44 41.58116 17.14805 37067 ft 450 kts 197°
2026-04-29 12:44 41.52000 17.13039 37062 ft 450 kts 197°
2026-04-29 12:45 41.45882 17.11270 37063 ft 449 kts 197°
2026-04-29 12:45 41.39768 17.09517 37058 ft 450 kts 196°
2026-04-29 12:46 41.33645 17.07775 37057 ft 450 kts 196°
2026-04-29 12:46 41.27530 17.06035 37049 ft 449 kts 196°
2026-04-29 12:47 41.21423 17.04295 37047 ft 449 kts 196°
2026-04-29 12:47 41.15318 17.02557 37053 ft 449 kts 196°
2026-04-29 12:48 41.09216 17.00824 37044 ft 448 kts 196°
2026-04-29 12:48 41.03116 16.99098 37051 ft 448 kts 195°
2026-04-29 12:49 40.97061 16.97392 37051 ft 448 kts 196°
2026-04-29 12:49 40.90966 16.95665 37047 ft 448 kts 195°
2026-04-29 12:50 40.84873 16.93941 37054 ft 448 kts 195°
2026-04-29 12:50 40.78780 16.92229 37055 ft 448 kts 195°
2026-04-29 12:51 40.72687 16.90520 37078 ft 448 kts 195°
2026-04-29 12:51 40.66595 16.88815 37078 ft 448 kts 195°
2026-04-29 12:52 40.60501 16.87121 37116 ft 448 kts 195°
2026-04-29 12:52 40.54407 16.85426 37145 ft 448 kts 195°
2026-04-29 12:53 40.48316 16.83721 37177 ft 448 kts 195°
2026-04-29 12:53 40.42222 16.82029 37195 ft 448 kts 195°
2026-04-29 12:54 40.36116 16.80348 37200 ft 448 kts 195°
2026-04-29 12:54 40.30057 16.78677 37181 ft 448 kts 195°
2026-04-29 12:55 40.23966 16.76986 37160 ft 448 kts 195°
2026-04-29 12:55 40.17867 16.75302 37134 ft 448 kts 194°
2026-04-29 12:56 40.11763 16.73626 37096 ft 448 kts 194°
2026-04-29 12:56 40.05663 16.71948 37061 ft 448 kts 194°
2026-04-29 12:57 39.99560 16.70275 37061 ft 448 kts 194°
2026-04-29 12:57 39.93461 16.68598 37060 ft 448 kts 194°
2026-04-29 12:58 39.87364 16.66925 37052 ft 448 kts 195°
2026-04-29 12:58 39.81264 16.65264 37058 ft 448 kts 195°
2026-04-29 12:59 39.75158 16.63605 37064 ft 448 kts 194°
2026-04-29 12:59 39.69053 16.61952 37053 ft 448 kts 195°
2026-04-29 13:00 39.62984 16.60306 37057 ft 448 kts 195°
2026-04-29 13:00 39.56870 16.58652 37062 ft 449 kts 195°
2026-04-29 13:01 39.50753 16.57000 37066 ft 449 kts 195°
2026-04-29 13:01 39.44640 16.55343 37069 ft 449 kts 195°
2026-04-29 13:02 39.38526 16.53688 37063 ft 449 kts 195°
2026-04-29 13:02 39.32404 16.52048 37075 ft 449 kts 195°
2026-04-29 13:03 39.26289 16.50413 37065 ft 449 kts 195°
2026-04-29 13:03 39.20172 16.48772 37068 ft 449 kts 195°
2026-04-29 13:04 39.14096 16.47139 37072 ft 449 kts 195°
2026-04-29 13:04 39.07973 16.45509 37071 ft 449 kts 195°
2026-04-29 13:05 39.01844 16.43890 36930 ft 450 kts 196°
2026-04-29 13:05 38.98784 16.43079 36633 ft 448 kts 196°
2026-04-29 13:05 38.95722 16.42263 35820 ft 451 kts 196°
2026-04-29 13:05 38.92646 16.41440 34964 ft 454 kts 196°
2026-04-29 13:06 38.89539 16.40607 34077 ft 457 kts 196°
2026-04-29 13:06 38.86406 16.39771 32868 ft 464 kts 196°
2026-04-29 13:06 38.83266 16.38941 31510 ft 459 kts 197°
2026-04-29 13:06 38.80133 16.38107 29851 ft 459 kts 199°
2026-04-29 13:07 38.77107 16.36892 27841 ft 455 kts 206°
2026-04-29 13:07 38.74276 16.35095 25793 ft 455 kts 214°
2026-04-29 13:07 38.72688 16.33741 24618 ft 455 kts 219°
2026-04-29 13:07 38.70390 16.31321 22769 ft 455 kts 223°
2026-04-29 13:08 38.67985 16.28707 21035 ft 451 kts 222°
2026-04-29 13:08 38.65608 16.26147 19524 ft 442 kts 222°
2026-04-29 13:08 38.64019 16.24446 18563 ft 437 kts 222°
2026-04-29 13:08 38.62868 16.23216 17798 ft 433 kts 222°
2026-04-29 13:09 38.60578 16.20776 16511 ft 422 kts 222°
2026-04-29 13:09 38.58392 16.18448 15869 ft 397 kts 222°
2026-04-29 13:09 38.56306 16.16226 15185 ft 389 kts 222°
2026-04-29 13:09 38.54262 16.14041 14522 ft 386 kts 222°
2026-04-29 13:10 38.52216 16.11852 13871 ft 382 kts 222°
2026-04-29 13:10 38.50171 16.09668 13168 ft 382 kts 222°
2026-04-29 13:10 38.48142 16.07502 12528 ft 379 kts 222°
2026-04-29 13:10 38.46130 16.05355 11874 ft 375 kts 222°
2026-04-29 13:11 38.44141 16.03231 11371 ft 368 kts 222°
2026-04-29 13:11 38.42221 16.01184 11243 ft 351 kts 222°
2026-04-29 13:11 38.40390 15.99236 11116 ft 335 kts 222°
2026-04-29 13:11 38.38638 15.97372 11002 ft 321 kts 222°
2026-04-29 13:12 38.36959 15.95583 10875 ft 309 kts 223°
2026-04-29 13:12 38.35340 15.93857 10760 ft 298 kts 223°
2026-04-29 13:12 38.33794 15.92209 10580 ft 290 kts 223°
2026-04-29 13:12 38.32256 15.90568 10519 ft 288 kts 223°
2026-04-29 13:13 38.30701 15.88909 10434 ft 287 kts 223°
2026-04-29 13:13 38.29190 15.87303 10309 ft 286 kts 223°
2026-04-29 13:13 38.27930 15.85407 10160 ft 279 kts 249°
2026-04-29 13:13 38.27668 15.83019 10021 ft 276 kts 280°
2026-04-29 13:14 38.28435 15.80800 9610 ft 277 kts 305°
2026-04-29 13:14 38.29621 15.78875 9201 ft 276 kts 307°
2026-04-29 13:14 38.30675 15.76841 8788 ft 274 kts 298°
2026-04-29 13:14 38.31446 15.74633 8397 ft 273 kts 289°
2026-04-29 13:15 38.31971 15.72329 8087 ft 267 kts 283°
2026-04-29 13:15 38.32325 15.70047 7773 ft 263 kts 279°
2026-04-29 13:15 38.32556 15.67713 7285 ft 267 kts 275°
2026-04-29 13:15 38.32666 15.65361 6835 ft 262 kts 271°
2026-04-29 13:16 38.32649 15.63101 6463 ft 250 kts 267°
2026-04-29 13:16 38.32519 15.60946 6104 ft 238 kts 263°
2026-04-29 13:16 38.32288 15.58902 5772 ft 228 kts 257°
2026-04-29 13:16 38.31645 15.57137 5461 ft 218 kts 229°
2026-04-29 13:17 38.30457 15.55998 5153 ft 213 kts 206°
2026-04-29 13:17 38.29142 15.55228 4877 ft 209 kts 205°
2026-04-29 13:17 38.27792 15.54595 4556 ft 205 kts 191°
2026-04-29 13:17 38.26390 15.54532 4279 ft 200 kts 176°
2026-04-29 13:18 38.25022 15.54697 4016 ft 193 kts 176°
2026-04-29 13:18 38.23701 15.54850 3768 ft 188 kts 176°
2026-04-29 13:18 38.22432 15.55194 3506 ft 189 kts 160°
2026-04-29 13:18 38.21246 15.55948 3226 ft 190 kts 155°
2026-04-29 13:19 38.20091 15.56705 2936 ft 182 kts 155°
2026-04-29 13:19 38.18990 15.57424 2700 ft 175 kts 154°
2026-04-29 13:19 38.17938 15.58111 2457 ft 165 kts 154°
2026-04-29 13:19 38.16941 15.58760 2219 ft 157 kts 154°
2026-04-29 13:20 38.15994 15.59374 2012 ft 148 kts 154°
2026-04-29 13:20 38.15116 15.59942 1810 ft 137 kts 153°
2026-04-29 13:20 38.14279 15.60484 1605 ft 133 kts 153°
2026-04-29 13:20 38.13459 15.61014 1404 ft 132 kts 153°
2026-04-29 13:21 38.12641 15.61543 1210 ft 132 kts 153°
2026-04-29 13:21 38.11826 15.62073 1016 ft 131 kts 153°
2026-04-29 13:21 38.11016 15.62599 829 ft 130 kts 154°
2026-04-29 13:21 38.10215 15.63120 635 ft 129 kts 155°
2026-04-29 13:22 38.09420 15.63635 435 ft 128 kts 156°
2026-04-29 13:22 38.08625 15.64172 309 ft 131 kts 154°
2026-04-29 13:22 38.07818 15.64704 100 ft 130 kts 156°
2026-04-29 13:22 38.07092 15.65159 48 ft 83 kts 150°
2026-04-29 13:23 38.06847 15.65334 43 ft 13 kts 154°
2026-04-29 13:23 38.06756 15.65391 42 ft 16 kts 153°
2026-04-29 13:23 38.06652 15.65460 43 ft 18 kts 153°
2026-04-29 13:23 38.06529 15.65540 43 ft 21 kts 147°
2026-04-29 13:24 38.06461 15.65642 47 ft 13 kts 193°
2026-04-29 13:24 38.06493 15.65561 44 ft 14 kts 336°
2026-04-29 13:24 38.06593 15.65499 44 ft 18 kts 333°
2026-04-29 13:24 38.06702 15.65427 43 ft 17 kts 333°
2026-04-29 13:25 38.06824 15.65349 43 ft 23 kts 333°
2026-04-29 13:25 38.07145 15.65141 49 ft 21 kts 333°
2026-04-29 13:25 38.07263 15.65082 50 ft 10 kts 22°
2026-04-29 13:26 38.07296 15.65124 54 ft 4 kts 54°
2026-04-29 13:26 38.07324 15.65193 58 ft 10 kts 63°
2026-04-29 13:26 38.07334 15.65243 59 ft 5 kts 113°
2026-04-29 13:26 38.07298 15.65284 63 ft 7 kts 114°
2026-04-29 13:27 38.07312 15.65325 61 ft 1 kts 63°
2026-04-29 13:27 38.07312 15.65326 62 ft 0 kts 78°
2026-04-29 13:27 38.07306 15.65334 61 ft 2 kts 130°
2026-04-29 13:27 38.07306 15.65335 61 ft 0 kts 130°
2026-04-29 13:41 38.09976 15.63275 583 ft 128 kts 156°
2026-04-29 13:41 38.09180 15.63790 383 ft 129 kts 155°
2026-04-29 13:41 38.08385 15.64336 241 ft 132 kts 156°
2026-04-29 13:42 38.07577 15.64858 74 ft 129 kts 158°
2026-04-29 13:42 38.07306 15.65335 59 ft 0 kts 130°